This demonstration page uses our WeatherBlox Daily Observations layout. Learn more.

Left ArrowRight Arrow

47.50024, -111.30081

Hourly Observations for August 10, 2022

Temp ( °F °C ) Dew Point ( °F °C ) Humidity (%) Winds ( mph kmh ) Pressure ( in mb ) Visibility ( mi km ) Precip ( " mm )
12:53 am 00:53 Clear 70 21.1 44 6.7 39 39 SSE 8 13 30.02 1017 10 16 0.00 0.00
1:53 am 01:53 Clear 72 22.2 44 6.7 37 37 S 6 9 30.01 1016 10 16 0.00 0.00
2:53 am 02:53 Clear 68 20 44 6.7 42 42 S 3 6 30.01 1016 10 16 0.00 0.00
3:53 am 03:53 Clear 61 16.1 44 6.7 54 54 W 3 6 30.02 1017 10 16 0.00 0.00
4:53 am 04:53 Clear 59 15 44 6.7 58 58 Calm 30.02 1017 10 16 0.00 0.00
5:53 am 05:53 Clear 60 15.6 44 6.7 55 55 Calm 30.01 1016 10 16 0.00 0.00
6:53 am 06:53 Sunny 61 16.1 45 7.2 56 56 Calm 30.01 1016 10 16 0.00 0.00
7:53 am 07:53 Sunny 71 21.7 45 7.2 39 39 Calm 30.01 1016 10 16 0.00 0.00
8:53 am 08:53 Sunny 75 23.9 45 7.2 34 34 Calm 30.02 1017 10 16 0.00 0.00
9:53 am 09:53 Sunny 77 25 47 8.3 35 35 VRB 3 6 30.01 1016 10 16 0.00 0.00
10:53 am 10:53 Sunny 81 27.2 47 8.3 30 30 ENE 5 7 30.01 1016 10 16 0.00 0.00
11:53 am 11:53 Sunny 85 29.4 46 7.8 26 26 E 5 7 30.01 1016 10 16 0.00 0.00
12:53 pm 12:53 Sunny 89 31.7 45 7.2 22 22 VRB 6 9 29.99 1016 10 16 0.00 0.00
1:53 pm 13:53 Sunny 88 31.1 45 7.2 22 22 E 5 7 29.97 1015 10 16 0.00 0.00
2:53 pm 14:53 Sunny 93 33.9 45 7.2 19 19 N 7 11 29.96 1014 10 16 0.00 0.00
3:53 pm 15:53 Sunny 92 33.3 46 7.8 21 21 NNW 6 9 29.96 1015 10 16 0.00 0.00
4:53 pm 16:53 Partly Cloudy 89 31.7 45 7.2 22 22 NNE 5 7 29.96 1015 10 16 0.00 0.00
5:53 pm 17:53 Sunny 89 31.7 44 6.7 21 21 NNW 7 11 29.96 1015 10 16 0.00 0.00
6:53 pm 18:53 Partly Cloudy 87 30.6 45 7.2 23 23 NNW 9 15 29.97 1015 10 16 0.00 0.00
7:53 pm 19:53 Sunny 84 28.9 45 7.2 26 26 WNW 6 9 29.96 1015 10 16 0.00 0.00
8:53 pm 20:53 Partly Cloudy 80 26.7 46 7.8 30 30 N 6 9 29.98 1015 10 16 0.00 0.00
9:53 pm 21:53 Mostly Clear 80 26.7 46 7.8 30 30 NNW 9 15 30.00 1016 10 16 0.00 0.00
10:53 pm 22:53 Mostly Clear 78 25.6 47 8.3 33 33 WNW 9 15 30.01 1016 10 16 0.00 0.00
11:53 pm 23:53 Mostly Clear 75 23.9 50 10 41 41 Calm 30.01 1016 10 16 0.00 0.00

Powered by AerisWeather